Location: 3 Angels Observatory
(30.5437°N, 88.5068°W)
Time: 22:38:02
(UTC-06:00)

Amateur Radio Satellites - All Passes

Search period start: 12 February 2016 22:08
Search period end: 13 February 2016 22:08
Location: 3 Angels Observatory, 30.5437°N, 88.5068°W

Satellite Date Start Highest point End Downlink Frequencies (MHz)
Time Altitude Azimuth
POLYITAN 1 12 Feb 22:11:58 22:13:52 13° 94° (E) 22:15:46 437.675
QB50P2 12 Feb 22:12:17 22:14:22 13° 95° (E) 22:16:28 145.880/145.840
VELOX 1 12 Feb 22:18:07 22:22:20 42° 74° (ENE) 22:26:33 145.980
ISS 12 Feb 22:22:14 22:25:16 38° 230° (SW) 22:28:18 145.825
Cosmos 2499 12 Feb 22:27:01 22:31:49 17° 279° (W) 22:36:25 435.465 / 435.565
UKube-1 12 Feb 22:29:52 22:34:05 54° 75° (ENE) 22:38:19 .
RS-15 12 Feb 22:33:47 22:42:33 24° 258° (WSW) 22:51:21 29.354- 29.394
SPROUT 12 Feb 22:35:02 22:37:50 17° 70° (ENE) 22:40:37 437.525
AISAT 12 Feb 22:35:08 22:39:35 75° 77° (ENE) 22:44:03 437.250
UNISAT 6 12 Feb 22:36:08 22:40:27 57° 284° (WNW) 22:44:51 437.425
POPSAT HIP 1 12 Feb 22:39:47 22:43:25 28° 98° (E) 22:47:03 437.405
DUCHIFAT 1 12 Feb 22:42:17 22:45:55 28° 98° (E) 22:49:31 145.980
NANOSAT C BR1 12 Feb 22:42:20 22:46:01 30° 98° (E) 22:49:42 145.865
CUBEBUG 1 12 Feb 22:45:12 22:49:37 76° 77° (ENE) 22:54:03 437.445
DX 1 12 Feb 22:47:40 22:52:02 73° 257° (WSW) 22:56:26 434.975-435.025
QB50P1 12 Feb 22:51:49 22:55:48 41° 99° (E) 22:59:46 145.935-145.965
50 SAT 12 Feb 22:53:18 22:56:50 45° 260° (W) 23:00:24 437.505
PHONESAT 2.4 12 Feb 23:05:01 23:08:12 49° 335° (NNW) 23:11:25 2401.200-2431.200
ESTCUBE 1 12 Feb 23:10:37 23:14:48 37° 261° (W) 23:19:01 437.505/2401.250
ANTELSAT 12 Feb 23:22:22 23:25:13 17° 290° (WNW) 23:28:06 437.575/2403.000
TIGRISAT 12 Feb 23:28:20 23:30:54 15° 290° (WNW) 23:33:29 435.000
BUGSAT 1 12 Feb 23:29:22 23:33:19 54° 100° (E) 23:37:15 437.445
CUSAT 1 12 Feb 23:40:02 23:45:22 20° 85° (E) 23:50:45 437.405
POLYITAN 1 12 Feb 23:45:54 23:49:46 36° 286° (WNW) 23:53:38 437.675
QB50P2 12 Feb 23:46:24 23:50:15 35° 286° (WNW) 23:54:04 145.880/145.840
VELOX 1 12 Feb 23:57:01 23:58:55 13° 266° (W) 00:00:51 145.980
TISAT 1 13 Feb 00:05:15 00:09:28 77° 78° (ENE) 00:13:41 437.305
SWISSCUBE 13 Feb 00:07:22 00:09:44 14° 67° (ENE) 00:12:07 437.505
SPROUT 13 Feb 00:09:46 00:13:32 30° 262° (W) 00:17:19 437.525
POPSAT HIP 1 13 Feb 00:16:15 00:18:57 17° 290° (WNW) 00:21:40 437.405
DUCHIFAT 1 13 Feb 00:18:41 00:21:22 17° 290° (WNW) 00:24:04 145.980
NANOSAT C BR1 13 Feb 00:18:54 00:21:29 16° 290° (WNW) 00:24:03 145.865
Cosmos 2491 13 Feb 00:20:19 00:25:14 16° 70° (ENE) 00:30:08 435.465 / 435.565
QB50P1 13 Feb 00:29:37 00:31:10 12° 292° (WNW) 00:32:43 145.935-145.965
DANDE 13 Feb 00:39:43 00:46:27 35° 87° (E) 00:53:50 436.750
PHONESAT 2.4 13 Feb 00:43:44 00:45:56 17° 350° (N) 00:48:08 2401.200-2431.200
ITUPSAT 1 13 Feb 00:43:57 00:48:08 31° 72° (ENE) 00:52:21 437.325
BEESAT 13 Feb 00:49:56 00:54:18 37° 73° (ENE) 00:58:41 436.000
BEESAT 3 13 Feb 00:56:42 01:00:13 30° 58° (ENE) 01:03:42 437.485
YUBILEINY 13 Feb 01:03:34 01:07:57 15° 80° (E) 01:12:19 435.215
Oscar 19 13 Feb 01:11:14 01:16:21 69° 102° (ESE) 01:21:26 437.125/150
JAS-2 13 Feb 01:18:01 01:23:16 51° 100° (E) 01:28:16 435.910
CUSAT 1 13 Feb 01:18:58 01:26:50 73° 278° (W) 01:34:55 437.405
BEESAT 2 13 Feb 01:26:56 01:30:44 43° 60° (ENE) 01:34:30 435.950
KKS-1 13 Feb 01:36:21 01:38:33 14° 68° (ENE) 01:40:44 437.445
SWISSCUBE 13 Feb 01:42:30 01:47:04 47° 260° (W) 01:51:41 437.505
Gurwin Techsat 1B 13 Feb 02:09:49 02:15:10 87° 282° (WNW) 02:20:29 435.225
AIST 2 13 Feb 02:12:56 02:14:52 13° 52° (NE) 02:16:46 435.215
AO-7 13 Feb 02:13:51 02:18:33 16° 95° (E) 02:23:12 29.400- 29.500
Cosmos 2491 13 Feb 02:14:09 02:22:55 82° 266° (W) 02:31:43 435.465 / 435.565
DANDE 13 Feb 02:21:51 02:29:07 44° 284° (WNW) 02:37:07 436.750
PHONESAT 2.4 13 Feb 02:21:55 02:24:00 16° 8° (N) 02:26:04 2401.200-2431.200
ITUPSAT 1 13 Feb 02:22:31 02:25:57 20° 264° (W) 02:29:25 437.325
ITAMSAT 1 13 Feb 02:27:36 02:32:50 70° 102° (ESE) 02:38:02 435.822/435.867
BEESAT 13 Feb 02:29:12 02:32:09 16° 265° (W) 02:35:07 436.000
BEESAT 3 13 Feb 02:35:26 02:37:40 15° 251° (WSW) 02:39:52 437.485
SO-50 13 Feb 02:35:50 02:39:36 23° 109° (ESE) 02:43:25 436.795
STARS 13 Feb 02:44:04 02:48:15 44° 74° (ENE) 02:52:26 437.465
Oscar 19 13 Feb 02:53:52 02:55:01 11° 295° (WNW) 02:56:09 437.125/150
YUBILEINY 13 Feb 02:54:45 03:03:31 83° 275° (W) 03:12:24 435.215
JAS-2 13 Feb 03:05:09 03:07:47 14° 296° (WNW) 03:10:21 435.910
CUSAT 1 13 Feb 03:07:34 03:10:10 12° 293° (WNW) 03:12:47 437.405
BEESAT 2 13 Feb 03:07:34 03:08:10 10° 253° (WSW) 03:08:46 435.950
KKS-1 13 Feb 03:10:29 03:14:42 42° 260° (W) 03:18:56 437.445
MOZHAYETS 4 13 Feb 03:29:11 03:33:44 77° 259° (W) 03:38:19
M-CUBED/EXP-1 PRIME 13 Feb 03:35:57 03:38:51 23° 103° (ESE) 03:41:55 437.505
AUBIESAT-1 13 Feb 03:42:33 03:45:29 23° 103° (ESE) 03:48:34 437.475
AIST 2 13 Feb 03:49:37 03:53:33 44° 247° (WSW) 03:57:26 435.215
PHONESAT 2.4 13 Feb 03:58:40 04:01:48 40° 24° (NNE) 04:04:53 2401.200-2431.200
AO-7 13 Feb 04:03:35 04:11:54 80° 288° (WNW) 04:20:11 29.400- 29.500
Cosmos 2504 13 Feb 04:09:14 04:17:36 66° 92° (E) 04:26:23 435.465 / 435.565
ITAMSAT 1 13 Feb 04:10:09 04:11:38 11° 296° (WNW) 04:13:08 435.822/435.867
SO-50 13 Feb 04:15:30 04:19:52 32° 303° (WNW) 04:24:19 436.795
Cosmos 2491 13 Feb 04:16:21 04:18:19 11° 281° (WNW) 04:20:18 435.465 / 435.565
CUBESAT XI-V 13 Feb 04:20:05 04:24:14 32° 73° (ENE) 04:28:24 437.345
STARS 13 Feb 04:23:14 04:24:45 12° 266° (W) 04:26:18 437.465
HORYU 2 13 Feb 04:34:06 04:38:32 64° 283° (WNW) 04:42:56 437.375
YUBILEINY 13 Feb 04:58:22 05:01:31 12° 293° (WNW) 05:04:41 435.215
JUGNU 13 Feb 05:00:02 05:03:20 15° 163° (SSE) 05:06:39 437.505
M-CUBED/EXP-1 PRIME 13 Feb 05:11:06 05:13:19 16° 292° (WNW) 05:15:38 437.505
AUBIESAT-1 13 Feb 05:17:33 05:19:53 17° 292° (WNW) 05:22:19 437.475
PHONESAT 2.4 13 Feb 05:36:10 05:38:56 25° 217° (SW) 05:41:41 2401.200-2431.200
BRITE-PL 13 Feb 05:40:24 05:43:06 16° 93° (E) 05:45:44 437.365/2234.400
LilacSat-2 13 Feb 05:48:26 05:51:59 38° 99° (E) 05:55:32 437.200
CUBESAT XI-V 13 Feb 05:58:20 06:01:36 19° 265° (W) 06:04:53 437.345
AO-7 13 Feb 05:59:42 06:03:22 14° 305° (NW) 06:07:02 29.400- 29.500
Cosmos 2504 13 Feb 06:05:16 06:11:33 22° 288° (WNW) 06:18:03 435.465 / 435.565
CUTE-I 13 Feb 06:10:57 06:16:21 81° 103° (ESE) 06:21:43 437.470
Cubesat XI-IV 13 Feb 06:25:53 06:31:16 72° 285° (WNW) 06:36:37 437.490
GOMX 1 13 Feb 06:26:37 06:30:08 25° 96° (E) 06:33:33 467.674
STRAND 1 13 Feb 06:27:30 06:32:37 88° 253° (WSW) 06:37:46 437.568
GONETS M04 13 Feb 06:32:39 06:34:01 10° 78° (ENE) 06:35:23
SRMSAT 13 Feb 06:43:46 06:46:18 13° 162° (SSE) 06:48:49 437.500
JUGNU 13 Feb 06:46:58 06:51:48 26° 172° (S) 06:56:38 437.505
O/OREOS (USA 219) 13 Feb 06:47:30 06:51:58 87° 102° (ESE) 06:56:28 437.305
CUTE 1.7 + AOD 2 13 Feb 07:07:20 07:09:25 13° 94° (E) 07:11:30 437.475
BRITE-PL 13 Feb 07:17:45 07:21:41 30° 288° (WNW) 07:25:25 437.365/2234.400
LilacSat-2 13 Feb 07:25:39 07:25:54 10° 291° (WNW) 07:26:08 437.200
DOVE 4 13 Feb 07:26:24 07:30:32 68° 101° (E) 07:34:39 437.250
PRISM 13 Feb 07:30:01 07:34:04 53° 260° (W) 07:38:09 437.425
AO-85 13 Feb 07:38:32 07:41:23 15° 106° (ESE) 07:44:19 145.980
CANX-2 13 Feb 07:51:11 07:55:25 57° 100° (E) 07:59:38 2200.000
CINEMA 3 13 Feb 07:53:26 07:57:23 41° 99° (E) 08:01:25 145.822/145.860
GOMX 1 13 Feb 08:05:08 08:08:01 18° 290° (WNW) 08:10:51 467.674
HO-68 13 Feb 08:06:40 08:13:52 72° 104° (ESE) 08:21:01 435.675
ZACube-1 13 Feb 08:16:16 08:17:18 11° 94° (E) 08:18:22 437.345
COMPASS 1 13 Feb 08:19:49 08:24:00 59° 100° (E) 08:28:09 437.405
GONETS M04 13 Feb 08:20:42 08:29:21 81° 94° (E) 08:38:05
FUNcube-1 13 Feb 08:22:31 08:24:25 13° 94° (E) 08:26:19 145.935
PCSat 13 Feb 08:25:16 08:29:04 20° 105° (ESE) 08:32:54 145.827
RS-15 13 Feb 08:29:26 08:35:01 15° 99° (E) 08:40:41 29.354- 29.394
SRMSAT 13 Feb 08:30:15 08:34:53 24° 170° (S) 08:39:31 437.500
JUGNU 13 Feb 08:35:19 08:40:21 29° 182° (S) 08:45:21 437.505
ANTELSAT 13 Feb 08:39:55 08:42:14 14° 69° (ENE) 08:44:32 437.575/2403.000
SEEDS 13 Feb 08:40:52 08:45:00 51° 285° (WNW) 08:49:08 437.485
CUTE 1.7 + AOD 2 13 Feb 08:41:22 08:45:20 37° 286° (WNW) 08:49:16 437.475
AAUSAT CUBESAT 2 13 Feb 08:44:48 08:49:01 82° 285° (WNW) 08:53:12 437.432
TIGRISAT 13 Feb 08:45:10 08:47:46 16° 70° (ENE) 08:50:20 435.000
Oscar 11 13 Feb 08:47:58 08:52:01 37° 99° (E) 08:56:03 145.826/435.025
Cosmos 2499 13 Feb 08:59:03 09:07:33 65° 92° (E) 09:16:20 435.465 / 435.565
UWE-3 13 Feb 09:04:05 09:08:21 71° 101° (ESE) 09:12:43 435.000/436.395/437.385
CUBEBUG 2 13 Feb 09:11:27 09:15:39 63° 283° (WNW) 09:19:58 437.445
AO-85 13 Feb 09:16:10 09:21:20 57° 300° (WNW) 09:26:44 145.980
DELFI C3 13 Feb 09:28:48 09:32:49 63° 101° (E) 09:36:49 145.870
POPSAT HIP 1 13 Feb 09:29:19 09:30:31 11° 68° (ENE) 09:31:42 437.405
UNISAT 6 13 Feb 09:29:22 09:33:37 60° 76° (ENE) 09:37:51 437.425
NANOSAT C BR1 13 Feb 09:31:21 09:32:46 11° 68° (ENE) 09:34:09 145.865
DUCHIFAT 1 13 Feb 09:31:28 09:32:27 11° 68° (ENE) 09:33:26 145.980
CINEMA 3 13 Feb 09:32:43 09:34:09 12° 291° (WNW) 09:35:37 145.822/145.860
HUMSAT D 13 Feb 09:35:52 09:39:30 28° 98° (E) 09:43:08 437.325/437.525
QB50P1 13 Feb 09:40:06 09:42:40 16° 70° (ENE) 09:45:14 145.935-145.965
ZACube-1 13 Feb 09:49:38 09:53:44 45° 285° (WNW) 09:57:54 437.345
HO-68 13 Feb 09:56:23 10:00:48 18° 298° (WNW) 10:05:14 435.675
FUNcube-1 13 Feb 09:56:46 10:00:45 39° 286° (WNW) 10:04:48 145.935
AIST 1 13 Feb 10:00:01 10:04:24 79° 275° (W) 10:08:48
PCSat 13 Feb 10:07:01 10:12:05 41° 299° (WNW) 10:17:12 145.827
BUGSAT 1 13 Feb 10:14:30 10:17:27 19° 71° (ENE) 10:20:22 437.445
ANTELSAT 13 Feb 10:14:41 10:18:38 35° 261° (W) 10:22:33 437.575/2403.000
VELOX 1 13 Feb 10:15:51 10:17:44 12° 94° (E) 10:19:36 145.980
SRMSAT 13 Feb 10:18:32 10:23:33 29° 180° (S) 10:28:36 437.500
TIGRISAT 13 Feb 10:20:19 10:24:10 31° 262° (W) 10:27:59 435.000
GONETS M04 13 Feb 10:22:10 10:27:02 16° 290° (WNW) 10:31:56
UKube-1 13 Feb 10:24:14 10:26:32 14° 95° (E) 10:28:50 .
JUGNU 13 Feb 10:24:29 10:28:50 21° 192° (SSW) 10:33:11 437.505
Oscar 11 13 Feb 10:25:30 10:27:47 14° 291° (WNW) 10:30:02 145.826/435.025
50 SAT 13 Feb 10:30:33 10:33:39 23° 97° (E) 10:36:44 437.505
AISAT 13 Feb 10:31:53 10:35:16 21° 96° (E) 10:38:37 437.250
POLYITAN 1 13 Feb 10:32:26 10:36:39 76° 77° (ENE) 10:40:52 437.675
QB50P2 13 Feb 10:32:52 10:37:05 79° 78° (ENE) 10:41:20 145.880/145.840
RS-15 13 Feb 10:34:34 10:45:35 87° 116° (ESE) 10:57:12 29.354- 29.394
CUBEBUG 1 13 Feb 10:40:20 10:43:40 21° 96° (E) 10:46:57 437.445
DX 1 13 Feb 10:41:54 10:45:41 29° 98° (E) 10:49:26 434.975-435.025
Cosmos 2499 13 Feb 10:54:42 11:01:12 23° 288° (WNW) 11:07:49 435.465 / 435.565
POPSAT HIP 1 13 Feb 11:01:48 11:05:51 45° 260° (W) 11:09:55 437.405
DUCHIFAT 1 13 Feb 11:03:39 11:07:42 46° 260° (W) 11:11:46 145.980
NANOSAT C BR1 13 Feb 11:04:03 11:08:04 43° 260° (W) 11:12:06 145.865
ESTCUBE 1 13 Feb 11:08:21 11:12:53 70° 101° (ESE) 11:17:23 437.505/2401.250
HUMSAT D 13 Feb 11:12:05 11:14:53 18° 289° (WNW) 11:17:43 437.325/437.525
QB50P1 13 Feb 11:14:24 11:18:10 31° 262° (W) 11:21:56 145.935-145.965
JAS-2 13 Feb 11:25:09 11:29:26 16° 65° (ENE) 11:33:31 435.910
DANDE 13 Feb 11:30:58 11:33:26 13° 64° (ENE) 11:35:39 436.750
BUGSAT 1 13 Feb 11:49:07 11:52:37 25° 263° (W) 11:56:06 437.445
VELOX 1 13 Feb 11:50:11 11:54:20 41° 286° (WNW) 11:58:26 145.980
TISAT 1 13 Feb 11:55:58 11:58:49 18° 96° (E) 12:01:39 437.305
UKube-1 13 Feb 11:58:43 12:02:39 35° 287° (WNW) 12:06:33 .
SPROUT 13 Feb 12:00:52 12:05:07 70° 101° (E) 12:09:21 437.525
50 SAT 13 Feb 12:04:59 12:07:25 17° 289° (WNW) 12:09:52 437.505
CUSAT 1 13 Feb 12:05:01 12:09:47 53° 78° (ENE) 12:13:22 437.405
SRMSAT 13 Feb 12:07:38 12:12:14 23° 190° (S) 12:16:49 437.500
AISAT 13 Feb 12:08:05 12:11:38 24° 289° (WNW) 12:15:10 437.250
CUBEBUG 1 13 Feb 12:16:22 12:19:50 24° 289° (WNW) 12:23:17 437.445
JUGNU 13 Feb 12:17:07 12:17:15 10° 200° (SSW) 12:17:23 437.505
DX 1 13 Feb 12:18:41 12:21:37 18° 291° (WNW) 12:24:32 434.975-435.025
Oscar 19 13 Feb 12:22:22 12:27:25 56° 74° (ENE) 12:32:29 437.125/150
RS-15 13 Feb 12:51:00 12:59:34 24° 318° (NW) 13:08:31 29.354- 29.394
ITUPSAT 1 13 Feb 12:51:43 12:53:51 13° 94° (E) 12:55:59 437.325
SO-50 13 Feb 12:52:02 12:56:40 51° 60° (ENE) 13:01:08 436.795
BEESAT 13 Feb 12:56:53 12:59:43 15° 95° (E) 13:02:31 436.000
JAS-2 13 Feb 13:06:03 13:13:47 80° 257° (WSW) 13:20:53 435.910
AO-7 13 Feb 13:08:17 13:12:33 15° 56° (NE) 13:16:49 29.400- 29.500
DANDE 13 Feb 13:11:27 13:17:16 54° 268° (W) 13:21:36 436.750
YUBILEINY 13 Feb 13:12:32 13:20:36 38° 77° (ENE) 13:28:34 435.215
Cosmos 2491 13 Feb 13:14:17 13:20:33 23° 83° (E) 13:26:48 435.465 / 435.565
ISS 13 Feb 13:21:05 13:24:19 89° 139° (SE) 13:27:34 145.825
Gurwin Techsat 1B 13 Feb 13:25:09 13:30:28 85° 75° (ENE) 13:35:47 435.225
TISAT 1 13 Feb 13:30:57 13:34:25 26° 288° (WNW) 13:37:52 437.305
ITAMSAT 1 13 Feb 13:39:56 13:45:01 59° 74° (ENE) 13:50:08 435.822/435.867
SWISSCUBE 13 Feb 13:48:05 13:52:53 69° 102° (ESE) 13:57:39 437.505
SRMSAT 13 Feb 13:58:29 14:00:49 12° 198° (SSW) 14:03:09 437.500
Oscar 19 13 Feb 14:04:49 14:06:58 12° 267° (W) 14:09:08 437.125/150
Cosmos 2504 13 Feb 14:12:00 14:16:44 16° 69° (ENE) 14:21:17 435.465 / 435.565
M-CUBED/EXP-1 PRIME 13 Feb 14:20:15 14:21:25 11° 67° (ENE) 14:22:34 437.505
AUBIESAT-1 13 Feb 14:26:37 14:27:32 11° 66° (ENE) 14:28:26 437.475
ITUPSAT 1 13 Feb 14:27:14 14:31:52 48° 286° (WNW) 14:36:28 437.325
BEESAT 13 Feb 14:33:07 14:37:35 40° 287° (WNW) 14:42:03 436.000
SO-50 13 Feb 14:34:44 14:36:36 12° 254° (WSW) 14:38:27 436.795
STARS 13 Feb 14:40:58 14:42:53 13° 94° (E) 14:44:46 437.465
BEESAT 3 13 Feb 14:43:05 14:46:05 21° 110° (ESE) 14:49:06 437.485
AO-7 13 Feb 14:55:44 15:04:07 86° 72° (ENE) 15:12:31 29.400- 29.500
JAS-2 13 Feb 14:58:22 14:59:12 10° 268° (W) 15:00:03 435.910
KKS-1 13 Feb 15:06:47 15:11:08 56° 101° (E) 15:15:27 437.445
Cosmos 2491 13 Feb 15:08:05 15:16:37 60° 278° (W) 15:25:13 435.465 / 435.565
YUBILEINY 13 Feb 15:09:21 15:17:11 37° 273° (W) 15:24:59 435.215
BEESAT 2 13 Feb 15:14:09 15:17:41 30° 112° (ESE) 15:21:14 435.950
ITAMSAT 1 13 Feb 15:22:56 15:24:46 12° 267° (W) 15:26:36 435.822/435.867
HORYU 2 13 Feb 15:26:26 15:30:44 56° 75° (ENE) 15:35:04 437.375
MOZHAYETS 4 13 Feb 15:29:59 15:34:19 38° 99° (E) 15:38:38
M-CUBED/EXP-1 PRIME 13 Feb 15:52:33 15:55:49 30° 256° (WSW) 15:58:54 437.505
AUBIESAT-1 13 Feb 15:58:35 16:01:51 31° 256° (WSW) 16:04:58 437.475
Cosmos 2504 13 Feb 16:02:38 16:11:02 78° 267° (W) 16:18:46 435.465 / 435.565
Cubesat XI-IV 13 Feb 16:07:14 16:08:09 10° 64° (ENE) 16:09:05 437.490
STARS 13 Feb 16:15:16 16:19:21 40° 286° (WNW) 16:23:26 437.465
BEESAT 3 13 Feb 16:20:30 16:23:41 23° 303° (WNW) 16:26:53 437.485
CUBESAT XI-V 13 Feb 16:24:08 16:26:03 12° 93° (E) 16:27:58 437.345
BRITE-PL 13 Feb 16:45:10 16:48:21 16° 68° (ENE) 16:51:29 437.365/2234.400
BEESAT 2 13 Feb 16:52:57 16:55:35 17° 306° (NW) 16:58:14 435.950
AO-7 13 Feb 16:53:18 16:57:31 15° 266° (W) 17:01:47 29.400- 29.500
O/OREOS (USA 219) 13 Feb 17:03:00 17:07:35 65° 70° (ENE) 17:12:09 437.305
MOZHAYETS 4 13 Feb 17:08:20 17:11:07 16° 291° (WNW) 17:13:54
CUTE-I 13 Feb 17:27:06 17:32:24 76° 76° (ENE) 17:37:44 437.470
GOMX 1 13 Feb 17:28:50 17:32:41 20° 70° (ENE) 17:36:24 467.674
RS-15 13 Feb 17:32:37 17:39:36 16° 33° (NNE) 17:46:39 29.354- 29.394
AIST 2 13 Feb 17:41:32 17:45:37 54° 299° (WNW) 17:49:42 435.215
Cubesat XI-IV 13 Feb 17:42:11 17:47:29 76° 257° (WSW) 17:52:51 437.490
AO-85 13 Feb 17:54:26 17:58:50 30° 55° (NE) 18:02:54 145.980
LilacSat-2 13 Feb 17:58:54 18:02:32 43° 261° (W) 18:06:10 437.200
CUBESAT XI-V 13 Feb 17:59:08 18:03:36 47° 286° (WNW) 18:08:03 437.345
BRITE-PL 13 Feb 18:20:41 18:26:17 59° 260° (W) 18:31:46 437.365/2234.400
DOVE 4 13 Feb 18:25:42 18:30:24 39° 74° (ENE) 18:34:52 437.250
HO-68 13 Feb 18:29:49 18:35:51 30° 66° (ENE) 18:41:53 435.675
GONETS M04 13 Feb 18:38:42 18:46:14 31° 75° (ENE) 18:53:44
CANX-2 13 Feb 18:39:21 18:42:24 20° 71° (ENE) 18:45:28 2200.000
STRAND 1 13 Feb 18:43:49 18:48:50 51° 100° (E) 18:53:50 437.568
CINEMA 3 13 Feb 18:50:13 18:53:39 21° 72° (ENE) 18:57:00 145.822/145.860
PCSat 13 Feb 19:00:13 19:05:28 47° 62° (ENE) 19:10:39 145.827
Cosmos 2499 13 Feb 19:01:02 19:05:04 14° 68° (ENE) 19:08:58 435.465 / 435.565
GOMX 1 13 Feb 19:05:25 19:10:27 39° 261° (W) 19:15:19 467.674
COMPASS 1 13 Feb 19:06:08 19:09:03 19° 71° (ENE) 19:11:59 437.405
PRISM 13 Feb 19:17:35 19:21:17 30° 98° (E) 19:24:55 437.425
SEEDS 13 Feb 19:26:49 19:30:50 49° 75° (ENE) 19:34:53 437.485
CUTE 1.7 + AOD 2 13 Feb 19:27:55 19:32:05 73° 78° (ENE) 19:36:18 437.475
AAUSAT CUBESAT 2 13 Feb 19:29:52 19:33:26 30° 73° (ENE) 19:37:04 437.432
AO-85 13 Feb 19:35:22 19:39:06 22° 252° (WSW) 19:42:34 145.980
Oscar 11 13 Feb 19:38:39 19:41:05 15° 69° (ENE) 19:43:31 145.826/435.025
RS-15 13 Feb 19:43:06 19:55:12 62° 59° (ENE) 20:07:18 29.354- 29.394
UWE-3 13 Feb 19:56:11 19:59:46 27° 73° (ENE) 20:03:18 435.000/436.395/437.385
CUBEBUG 2 13 Feb 20:03:59 20:08:10 50° 75° (ENE) 20:12:15 437.445
DOVE 4 13 Feb 20:04:45 20:08:05 18° 265° (W) 20:11:20 437.250
DELFI C3 13 Feb 20:10:45 20:13:21 17° 71° (ENE) 20:15:58 145.870
AIST 1 13 Feb 20:14:32 20:16:55 14° 76° (ENE) 20:19:17
CANX-2 13 Feb 20:14:38 20:18:04 24° 263° (W) 20:21:31 2200.000
HO-68 13 Feb 20:16:35 20:23:15 42° 260° (W) 20:29:59 435.675
STRAND 1 13 Feb 20:24:42 20:27:31 15° 294° (WNW) 20:30:21 437.568
CINEMA 3 13 Feb 20:26:45 20:30:37 26° 262° (W) 20:34:22 145.822/145.860
GONETS M04 13 Feb 20:34:51 20:43:07 47° 271° (W) 20:51:24
PHONESAT 2.4 13 Feb 20:35:16 20:36:22 11° 139° (SE) 20:37:28 2401.200-2431.200
ZACube-1 13 Feb 20:39:41 20:43:51 66° 76° (ENE) 20:47:58 437.345
COMPASS 1 13 Feb 20:41:00 20:44:25 25° 263° (W) 20:47:50 437.405
PCSat 13 Feb 20:45:01 20:48:24 17° 255° (WSW) 20:51:46 145.827
FUNcube-1 13 Feb 20:46:25 20:50:36 76° 77° (ENE) 20:54:44 145.935
Cosmos 2499 13 Feb 20:51:03 20:59:11 81° 267° (W) 21:06:39 435.465 / 435.565
PRISM 13 Feb 20:53:49 20:56:18 16° 291° (WNW) 20:58:47 437.425
AAUSAT CUBESAT 2 13 Feb 21:06:31 21:08:57 15° 266° (W) 21:11:24 437.432
Oscar 11 13 Feb 21:12:59 21:16:52 34° 262° (W) 21:20:49 145.826/435.025
AISAT 13 Feb 21:26:43 21:27:22 10° 66° (ENE) 21:28:03 437.250
UNISAT 6 13 Feb 21:27:14 21:30:29 20° 96° (E) 21:33:46 437.425
ISS 13 Feb 21:29:21 21:32:36 83° 50° (NE) 21:35:49 145.825
UWE-3 13 Feb 21:33:21 21:36:11 17° 264° (W) 21:39:00 435.000/436.395/437.385
DX 1 13 Feb 21:33:36 21:35:42 13° 68° (ENE) 21:37:46 434.975-435.025
DELFI C3 13 Feb 21:44:45 21:48:02 25° 263° (W) 21:51:21 145.870
AIST 1 13 Feb 21:50:44 21:54:33 31° 269° (W) 21:58:20
HUMSAT D 13 Feb 21:56:40 22:00:36 49° 260° (W) 22:04:35 437.325/437.525
